EAN695 DNAS-DNYO

Flight info

Callsign EAN695
Flight time 1h 32m
Altitude 25000
Route ERTOT UQ589 MOBDA
Aircraft PC12/L-SDFGRWY/S

Departure

Time 2026-04-24 01:35
Airport Asaba International Airport (DNAS)

Arrival

Time 2026-04-24 03:08
Airport Yola Airport (DNYO)
Time Latitude Longitude Altitude Speed Heading
2026-04-24 01:29 6.20797 6.66170 307 ft 0 kts 288°
2026-04-24 01:33 6.20800 6.66155 303 ft 10 kts 276°
2026-04-24 01:33 6.20787 6.66020 307 ft 26 kts 272°
2026-04-24 01:33 6.20822 6.65801 305 ft 37 kts 268°
2026-04-24 01:33 6.20828 6.65515 303 ft 45 kts 287°
2026-04-24 01:34 6.20947 6.65230 301 ft 32 kts 312°
2026-04-24 01:34 6.20932 6.65210 299 ft 21 kts 109°
2026-04-24 01:34 6.20855 6.65421 303 ft 54 kts 110°
2026-04-24 01:34 6.20670 6.65929 306 ft 99 kts 110°
2026-04-24 01:35 6.20394 6.66656 472 ft 118 kts 112°
2026-04-24 01:35 6.20403 6.67462 999 ft 120 kts 57°
2026-04-24 01:35 6.21094 6.67848 1455 ft 111 kts 11°
2026-04-24 01:35 6.21711 6.68337 1644 ft 124 kts 80°
2026-04-24 01:36 6.21608 6.69082 2163 ft 99 kts 109°
2026-04-24 01:36 6.21842 6.69771 2420 ft 122 kts 57°
2026-04-24 01:36 6.22352 6.70627 2424 ft 162 kts 64°
2026-04-24 01:36 6.22854 6.71680 2764 ft 162 kts 70°
2026-04-24 01:37 6.22985 6.72638 3579 ft 130 kts 101°
2026-04-24 01:37 6.23096 6.73556 4013 ft 136 kts 77°
2026-04-24 01:37 6.23376 6.74491 4415 ft 142 kts 77°
2026-04-24 01:37 6.23648 6.75416 4805 ft 137 kts 76°
2026-04-24 01:38 6.23933 6.76342 5201 ft 140 kts 76°
2026-04-24 01:38 6.24218 6.77275 5609 ft 139 kts 75°
2026-04-24 01:38 6.24505 6.78212 6032 ft 142 kts 74°
2026-04-24 01:38 6.24800 6.79170 6445 ft 143 kts 74°
2026-04-24 01:39 6.25096 6.80135 6847 ft 145 kts 73°
2026-04-24 01:39 6.25396 6.81106 7245 ft 147 kts 72°
2026-04-24 01:39 6.25693 6.82070 7652 ft 147 kts 72°
2026-04-24 01:39 6.25999 6.83061 8058 ft 147 kts 71°
2026-04-24 01:40 6.26297 6.84028 8466 ft 147 kts 71°
2026-04-24 01:40 6.26598 6.85007 8885 ft 146 kts 70°
2026-04-24 01:40 6.26899 6.85980 9302 ft 146 kts 70°
2026-04-24 01:40 6.27201 6.86960 9733 ft 149 kts 70°
2026-04-24 01:41 6.27506 6.87952 10122 ft 148 kts 70°
2026-04-24 01:41 6.27817 6.88957 10519 ft 151 kts 70°
2026-04-24 01:41 6.28129 6.89971 10913 ft 153 kts 70°
2026-04-24 01:41 6.28447 6.91003 11316 ft 157 kts 70°
2026-04-24 01:42 6.28777 6.92071 11727 ft 162 kts 70°
2026-04-24 01:42 6.29112 6.93164 12149 ft 165 kts 70°
2026-04-24 01:42 6.29452 6.94266 12567 ft 168 kts 70°
2026-04-24 01:42 6.29801 6.95400 12996 ft 172 kts 70°
2026-04-24 01:43 6.30158 6.96560 13432 ft 175 kts 70°
2026-04-24 01:43 6.30521 6.97737 13843 ft 178 kts 70°
2026-04-24 01:43 6.30891 6.98939 14225 ft 181 kts 70°
2026-04-24 01:43 6.31265 7.00155 14617 ft 183 kts 70°
2026-04-24 01:44 6.31644 7.01385 15018 ft 185 kts 70°
2026-04-24 01:44 6.32025 7.02624 15424 ft 186 kts 70°
2026-04-24 01:44 6.32410 7.03872 15820 ft 188 kts 70°
2026-04-24 01:44 6.32798 7.05132 16225 ft 189 kts 69°
2026-04-24 01:45 6.33189 7.06403 16644 ft 190 kts 70°
2026-04-24 01:45 6.33580 7.07673 17062 ft 191 kts 69°
2026-04-24 01:45 6.33968 7.08934 17482 ft 191 kts 69°
2026-04-24 01:45 6.34361 7.10211 17904 ft 191 kts 69°
2026-04-24 01:46 6.34754 7.11490 18311 ft 192 kts 69°
2026-04-24 01:46 6.35148 7.12768 18684 ft 191 kts 69°
2026-04-24 01:46 6.35540 7.14042 19060 ft 191 kts 70°
2026-04-24 01:46 6.35933 7.15319 19445 ft 190 kts 70°
2026-04-24 01:47 6.36324 7.16589 19826 ft 190 kts 70°
2026-04-24 01:47 6.36709 7.17839 20209 ft 189 kts 70°
2026-04-24 01:47 6.37096 7.19100 20604 ft 188 kts 70°
2026-04-24 01:47 6.37474 7.20337 20831 ft 177 kts 72°
2026-04-24 01:48 6.37804 7.21442 20795 ft 154 kts 72°
2026-04-24 01:48 6.38090 7.22436 20543 ft 147 kts 71°
2026-04-24 01:48 6.38440 7.23492 20248 ft 174 kts 68°
2026-04-24 01:48 6.38819 7.24671 20017 ft 183 kts 70°
2026-04-24 01:49 6.39205 7.25959 19688 ft 193 kts 71°
2026-04-24 01:49 6.39594 7.27251 19326 ft 193 kts 71°
2026-04-24 01:49 6.39992 7.28545 18982 ft 194 kts 70°
2026-04-24 01:49 6.40382 7.29814 18862 ft 188 kts 69°
2026-04-24 01:50 6.40799 7.31133 18875 ft 209 kts 70°
2026-04-24 01:50 6.41244 7.32577 18875 ft 228 kts 70°
2026-04-24 01:50 6.41707 7.34112 18863 ft 219 kts 71°
2026-04-24 01:50 6.42164 7.35607 18869 ft 232 kts 70°
2026-04-24 01:51 6.42661 7.37208 18866 ft 245 kts 70°
2026-04-24 01:51 6.43174 7.38878 18868 ft 253 kts 71°
2026-04-24 01:51 6.43696 7.40591 18864 ft 259 kts 71°
2026-04-24 01:51 6.44224 7.42310 18863 ft 262 kts 71°
2026-04-24 01:52 6.44769 7.44087 18867 ft 264 kts 70°
2026-04-24 01:52 6.45305 7.45833 18866 ft 265 kts 70°
2026-04-24 01:52 6.45851 7.47610 18863 ft 266 kts 70°
2026-04-24 01:52 6.46398 7.49392 18866 ft 267 kts 71°
2026-04-24 01:53 6.46944 7.51175 18863 ft 267 kts 71°
2026-04-24 01:53 6.47491 7.52958 18865 ft 267 kts 70°
2026-04-24 01:53 6.48039 7.54743 18863 ft 267 kts 71°
2026-04-24 01:53 6.48588 7.56533 18859 ft 267 kts 71°
2026-04-24 01:54 6.49135 7.58318 18862 ft 267 kts 71°
2026-04-24 01:54 6.49683 7.60104 18860 ft 267 kts 70°
2026-04-24 01:54 6.50231 7.61891 18859 ft 267 kts 71°
2026-04-24 01:54 6.50772 7.63656 18860 ft 267 kts 71°
2026-04-24 01:55 6.51320 7.65443 18861 ft 267 kts 71°
2026-04-24 01:55 6.51867 7.67230 18859 ft 268 kts 71°
2026-04-24 01:55 6.52415 7.69017 18858 ft 268 kts 71°
2026-04-24 01:55 6.52964 7.70811 18855 ft 268 kts 71°
2026-04-24 01:56 6.53512 7.72600 18857 ft 268 kts 70°
2026-04-24 01:56 6.54060 7.74390 18857 ft 267 kts 71°
2026-04-24 01:56 6.54608 7.76177 18853 ft 267 kts 71°
2026-04-24 01:56 6.55155 7.77965 18853 ft 268 kts 71°
2026-04-24 01:57 6.55696 7.79733 18855 ft 268 kts 70°
2026-04-24 01:57 6.56244 7.81522 18854 ft 268 kts 71°
2026-04-24 01:57 6.56792 7.83313 18853 ft 268 kts 70°
2026-04-24 01:57 6.57340 7.85105 18857 ft 268 kts 71°
2026-04-24 01:58 6.57889 7.86896 18854 ft 268 kts 70°
2026-04-24 01:58 6.58438 7.88691 18852 ft 268 kts 71°
2026-04-24 01:58 6.58986 7.90482 18855 ft 268 kts 70°
2026-04-24 01:58 6.59527 7.92251 18856 ft 268 kts 71°
2026-04-24 01:59 6.60074 7.94042 18848 ft 268 kts 71°
2026-04-24 01:59 6.60623 7.95836 18848 ft 268 kts 70°
2026-04-24 01:59 6.61171 7.97631 18849 ft 268 kts 70°
2026-04-24 01:59 6.61720 7.99424 18851 ft 268 kts 70°
2026-04-24 02:00 6.62269 8.01220 18848 ft 268 kts 71°
2026-04-24 02:00 6.62818 8.03016 18850 ft 268 kts 70°
2026-04-24 02:00 6.63367 8.04812 18851 ft 268 kts 71°
2026-04-24 02:00 6.63913 8.06601 18845 ft 268 kts 70°
2026-04-24 02:01 6.64460 8.08393 18846 ft 268 kts 70°
2026-04-24 02:01 6.65009 8.10186 18845 ft 268 kts 70°
2026-04-24 02:01 6.65557 8.11984 18845 ft 268 kts 70°
2026-04-24 02:01 6.66104 8.13777 18851 ft 268 kts 70°
2026-04-24 02:02 6.66653 8.15571 18851 ft 268 kts 70°
2026-04-24 02:02 6.67195 8.17346 18849 ft 269 kts 70°
2026-04-24 02:02 6.67743 8.19143 18848 ft 269 kts 70°
2026-04-24 02:02 6.68290 8.20939 18848 ft 269 kts 70°
2026-04-24 02:03 6.69389 8.24539 18849 ft 269 kts 70°
2026-04-24 02:03 6.69938 8.26340 18847 ft 269 kts 70°
2026-04-24 02:03 6.70487 8.28137 18850 ft 269 kts 71°
2026-04-24 02:04 6.71036 8.29937 18847 ft 269 kts 70°
2026-04-24 02:04 6.71584 8.31735 18850 ft 269 kts 70°
2026-04-24 02:04 6.72134 8.33539 18847 ft 269 kts 70°
2026-04-24 02:04 6.72683 8.35337 18847 ft 269 kts 70°
2026-04-24 02:05 6.73231 8.37137 18850 ft 269 kts 70°
2026-04-24 02:05 6.73773 8.38918 18847 ft 269 kts 71°
2026-04-24 02:05 6.74322 8.40723 18848 ft 270 kts 70°
2026-04-24 02:05 6.74874 8.42531 18847 ft 270 kts 70°
2026-04-24 02:06 6.75425 8.44338 18847 ft 270 kts 70°
2026-04-24 02:06 6.75788 8.45531 18849 ft 270 kts 71°
2026-04-24 02:06 6.76338 8.47338 18848 ft 270 kts 70°
2026-04-24 02:06 6.76887 8.49142 18849 ft 270 kts 70°
2026-04-24 02:07 6.77438 8.50950 18848 ft 270 kts 71°
2026-04-24 02:07 6.78165 8.53339 18849 ft 269 kts 70°
2026-04-24 02:07 6.78536 8.54556 18848 ft 269 kts 70°
2026-04-24 02:07 6.79084 8.56360 18850 ft 270 kts 70°
2026-04-24 02:08 6.79633 8.58164 18851 ft 270 kts 70°
2026-04-24 02:08 6.80182 8.59966 18850 ft 270 kts 70°
2026-04-24 02:08 6.80731 8.61775 18848 ft 270 kts 70°
2026-04-24 02:08 6.81280 8.63579 18849 ft 270 kts 70°
2026-04-24 02:09 6.81824 8.65365 18850 ft 270 kts 70°
2026-04-24 02:09 6.82372 8.67168 18848 ft 270 kts 71°
2026-04-24 02:09 6.82921 8.68975 18851 ft 270 kts 70°
2026-04-24 02:09 6.83470 8.70782 18848 ft 270 kts 70°
2026-04-24 02:10 6.84019 8.72588 18846 ft 270 kts 70°
2026-04-24 02:10 6.84569 8.74394 18845 ft 270 kts 70°
2026-04-24 02:10 6.85118 8.76204 18846 ft 270 kts 71°
2026-04-24 02:10 6.85669 8.78018 18846 ft 270 kts 71°
2026-04-24 02:11 6.86223 8.79823 18843 ft 269 kts 69°
2026-04-24 02:11 6.87045 8.81504 18843 ft 267 kts 56°
2026-04-24 02:11 6.88000 8.83108 18844 ft 267 kts 57°
2026-04-24 02:11 6.88934 8.84725 18843 ft 267 kts 58°
2026-04-24 02:12 6.89871 8.86343 18845 ft 267 kts 57°
2026-04-24 02:12 6.90815 8.87959 18845 ft 267 kts 57°
2026-04-24 02:12 6.91747 8.89552 18846 ft 267 kts 57°
2026-04-24 02:12 6.92689 8.91170 18845 ft 267 kts 58°
2026-04-24 02:13 6.93628 8.92783 18843 ft 267 kts 57°
2026-04-24 02:13 6.94568 8.94396 18845 ft 267 kts 57°
2026-04-24 02:13 6.95505 8.96006 18846 ft 267 kts 57°
2026-04-24 02:13 6.96446 8.97621 18843 ft 267 kts 57°
2026-04-24 02:14 6.97386 8.99233 18841 ft 267 kts 57°
2026-04-24 02:14 6.98324 9.00842 18839 ft 267 kts 57°
2026-04-24 02:14 6.99263 9.02457 18839 ft 267 kts 57°
2026-04-24 02:14 7.00201 9.04068 18838 ft 267 kts 57°
2026-04-24 02:15 7.01128 9.05658 18839 ft 267 kts 57°
2026-04-24 02:15 7.02065 9.07268 18839 ft 266 kts 57°
2026-04-24 02:15 7.03000 9.08877 18839 ft 266 kts 57°
2026-04-24 02:15 7.03936 9.10482 18838 ft 266 kts 57°
2026-04-24 02:16 7.04873 9.12092 18837 ft 266 kts 57°
2026-04-24 02:16 7.05811 9.13703 18839 ft 266 kts 57°
2026-04-24 02:16 7.06748 9.15314 18841 ft 266 kts 57°
2026-04-24 02:16 7.07684 9.16924 18838 ft 266 kts 57°
2026-04-24 02:17 7.08621 9.18534 18833 ft 266 kts 57°
2026-04-24 02:17 7.09518 9.20172 18835 ft 266 kts 59°
2026-04-24 02:17 7.10417 9.21802 18833 ft 266 kts 58°
2026-04-24 02:17 7.11313 9.23406 18836 ft 266 kts 58°
2026-04-24 02:18 7.12214 9.25041 18834 ft 267 kts 58°
2026-04-24 02:18 7.13109 9.26678 18835 ft 267 kts 59°
2026-04-24 02:18 7.14004 9.28311 18835 ft 267 kts 58°
2026-04-24 02:18 7.14905 9.29948 18834 ft 267 kts 59°
2026-04-24 02:19 7.15803 9.31585 18832 ft 267 kts 59°
2026-04-24 02:19 7.16701 9.33221 18837 ft 267 kts 58°
2026-04-24 02:19 7.17599 9.34856 18832 ft 267 kts 59°
2026-04-24 02:19 7.18497 9.36491 18834 ft 267 kts 59°
2026-04-24 02:20 7.19394 9.38125 18831 ft 267 kts 59°
2026-04-24 02:20 7.20292 9.39760 18833 ft 267 kts 58°
2026-04-24 02:20 7.21176 9.41372 18832 ft 266 kts 59°
2026-04-24 02:20 7.22072 9.43007 18831 ft 266 kts 59°
2026-04-24 02:21 7.22970 9.44641 18829 ft 266 kts 59°
2026-04-24 02:21 7.23865 9.46272 18831 ft 266 kts 59°
2026-04-24 02:21 7.24765 9.47913 18828 ft 266 kts 59°
2026-04-24 02:21 7.25661 9.49548 18830 ft 266 kts 59°
2026-04-24 02:22 7.26558 9.51184 18828 ft 266 kts 59°
2026-04-24 02:22 7.27454 9.52817 18829 ft 266 kts 59°
2026-04-24 02:22 7.28348 9.54447 18830 ft 266 kts 59°
2026-04-24 02:22 7.29245 9.56082 18828 ft 266 kts 59°
2026-04-24 02:23 7.30140 9.57715 18827 ft 266 kts 59°
2026-04-24 02:23 7.31035 9.59349 18828 ft 266 kts 59°
2026-04-24 02:23 7.31931 9.60984 18830 ft 266 kts 59°
2026-04-24 02:23 7.32829 9.62621 18826 ft 266 kts 59°
2026-04-24 02:24 7.33730 9.64247 18824 ft 266 kts 56°
2026-04-24 02:24 7.34863 9.65707 18823 ft 264 kts 46°
2026-04-24 02:24 7.36100 9.67044 18825 ft 264 kts 45°
2026-04-24 02:24 7.37305 9.68440 18826 ft 265 kts 49°
2026-04-24 02:25 7.38444 9.69898 18824 ft 265 kts 50°
2026-04-24 02:25 7.39586 9.71354 18827 ft 265 kts 49°
2026-04-24 02:25 7.40749 9.72795 18828 ft 265 kts 49°
2026-04-24 02:25 7.41911 9.74232 18825 ft 265 kts 49°
2026-04-24 02:26 7.43070 9.75674 18824 ft 264 kts 49°
2026-04-24 02:26 7.44224 9.77115 18823 ft 265 kts 49°
2026-04-24 02:26 7.45387 9.78563 18823 ft 265 kts 49°
2026-04-24 02:26 7.46543 9.80003 18824 ft 265 kts 49°
2026-04-24 02:27 7.47699 9.81443 18823 ft 264 kts 49°
2026-04-24 02:27 7.48858 9.82885 18823 ft 264 kts 49°
2026-04-24 02:27 7.50013 9.84326 18825 ft 264 kts 49°
2026-04-24 02:27 7.51171 9.85769 18822 ft 264 kts 49°
2026-04-24 02:28 7.52313 9.87191 18823 ft 264 kts 49°
2026-04-24 02:28 7.53471 9.88633 18824 ft 264 kts 49°
2026-04-24 02:28 7.54630 9.90077 18821 ft 264 kts 49°
2026-04-24 02:28 7.55786 9.91520 18819 ft 265 kts 49°
2026-04-24 02:29 7.56941 9.92960 18820 ft 264 kts 49°
2026-04-24 02:29 7.58103 9.94407 18821 ft 265 kts 49°
2026-04-24 02:29 7.59264 9.95854 18820 ft 265 kts 49°
2026-04-24 02:29 7.60420 9.97297 18817 ft 265 kts 49°
2026-04-24 02:30 7.61580 9.98744 18817 ft 265 kts 49°
2026-04-24 02:30 7.62739 10.00189 18816 ft 265 kts 49°
2026-04-24 02:30 7.63898 10.01633 18819 ft 265 kts 49°
2026-04-24 02:30 7.65047 10.03067 18813 ft 265 kts 49°
2026-04-24 02:31 7.66207 10.04515 18820 ft 265 kts 49°
2026-04-24 02:31 7.67369 10.05965 18819 ft 265 kts 49°
2026-04-24 02:31 7.68531 10.07414 18816 ft 265 kts 49°
2026-04-24 02:31 7.69690 10.08860 18819 ft 265 kts 49°
2026-04-24 02:32 7.70849 10.10307 18818 ft 265 kts 49°
2026-04-24 02:32 7.72007 10.11752 18813 ft 265 kts 49°
2026-04-24 02:32 7.73168 10.13201 18813 ft 265 kts 49°
2026-04-24 02:32 7.74328 10.14649 18816 ft 265 kts 49°
2026-04-24 02:33 7.75487 10.16097 18816 ft 265 kts 49°
2026-04-24 02:33 7.76645 10.17542 18816 ft 265 kts 49°
2026-04-24 02:33 7.77805 10.18990 18816 ft 265 kts 49°
2026-04-24 02:33 7.78953 10.20424 18815 ft 266 kts 49°
2026-04-24 02:34 7.80112 10.21873 18816 ft 266 kts 49°
2026-04-24 02:34 7.81274 10.23324 18815 ft 266 kts 49°
2026-04-24 02:34 7.82436 10.24775 18817 ft 266 kts 49°
2026-04-24 02:34 7.83598 10.26227 18816 ft 266 kts 49°
2026-04-24 02:35 7.84761 10.27680 18820 ft 266 kts 49°
2026-04-24 02:35 7.85923 10.29131 18817 ft 266 kts 49°
2026-04-24 02:35 7.87086 10.30586 18815 ft 266 kts 49°
2026-04-24 02:35 7.88250 10.32040 18812 ft 266 kts 49°
2026-04-24 02:36 7.89411 10.33492 18816 ft 266 kts 49°
2026-04-24 02:36 7.90575 10.34948 18815 ft 266 kts 49°
2026-04-24 02:36 7.91742 10.36405 18816 ft 267 kts 49°
2026-04-24 02:36 7.92908 10.37863 18814 ft 267 kts 49°
2026-04-24 02:37 7.94073 10.39321 18816 ft 267 kts 49°
2026-04-24 02:37 7.95226 10.40762 18814 ft 267 kts 49°
2026-04-24 02:37 7.96392 10.42220 18813 ft 267 kts 49°
2026-04-24 02:37 7.97557 10.43678 18817 ft 267 kts 49°
2026-04-24 02:38 7.98723 10.45136 18814 ft 267 kts 49°
2026-04-24 02:38 7.99888 10.46594 18816 ft 267 kts 49°
2026-04-24 02:38 8.01053 10.48051 18818 ft 267 kts 49°
2026-04-24 02:38 8.02216 10.49507 18816 ft 267 kts 49°
2026-04-24 02:39 8.03381 10.50964 18815 ft 267 kts 49°
2026-04-24 02:39 8.04548 10.52425 18813 ft 267 kts 49°
2026-04-24 02:39 8.05712 10.53883 18810 ft 267 kts 49°
2026-04-24 02:39 8.06878 10.55342 18815 ft 267 kts 49°
2026-04-24 02:40 8.08043 10.56800 18814 ft 267 kts 49°
2026-04-24 02:40 8.09209 10.58261 18812 ft 267 kts 49°
2026-04-24 02:40 8.10372 10.59717 18815 ft 267 kts 49°
2026-04-24 02:40 8.11539 10.61178 18816 ft 267 kts 49°
2026-04-24 02:41 8.12708 10.62642 18816 ft 267 kts 49°
2026-04-24 02:41 8.13859 10.64084 18817 ft 267 kts 49°
2026-04-24 02:41 8.15026 10.65545 18818 ft 267 kts 49°
2026-04-24 02:41 8.16196 10.67012 18813 ft 268 kts 49°
2026-04-24 02:42 8.17363 10.68474 18813 ft 267 kts 50°
2026-04-24 02:42 8.18531 10.69938 18813 ft 268 kts 50°
2026-04-24 02:42 8.19699 10.71402 18814 ft 267 kts 49°
2026-04-24 02:42 8.20864 10.72862 18814 ft 267 kts 50°
2026-04-24 02:43 8.22031 10.74322 18813 ft 267 kts 50°
2026-04-24 02:43 8.23199 10.75787 18816 ft 268 kts 50°
2026-04-24 02:43 8.24367 10.77256 18815 ft 268 kts 50°
2026-04-24 02:43 8.25523 10.78704 18813 ft 268 kts 50°
2026-04-24 02:44 8.26693 10.80169 18808 ft 268 kts 49°
2026-04-24 02:44 8.27874 10.81651 18807 ft 267 kts 49°
2026-04-24 02:44 8.29039 10.83112 18813 ft 267 kts 50°
2026-04-24 02:44 8.30205 10.84576 18814 ft 267 kts 49°
2026-04-24 02:45 8.31370 10.86037 18811 ft 267 kts 49°
2026-04-24 02:45 8.32523 10.87484 18812 ft 267 kts 49°
2026-04-24 02:45 8.33686 10.88943 18810 ft 267 kts 50°
2026-04-24 02:45 8.34857 10.90411 18819 ft 268 kts 49°
2026-04-24 02:46 8.36025 10.91876 18814 ft 268 kts 50°
2026-04-24 02:46 8.37198 10.93351 18817 ft 268 kts 49°
2026-04-24 02:46 8.38367 10.94818 18821 ft 268 kts 50°
2026-04-24 02:46 8.39534 10.96283 18817 ft 267 kts 50°
2026-04-24 02:47 8.40699 10.97745 18817 ft 267 kts 49°
2026-04-24 02:47 8.41848 10.99188 18818 ft 267 kts 50°
2026-04-24 02:47 8.43028 11.00671 18816 ft 267 kts 50°
2026-04-24 02:47 8.44176 11.02113 18817 ft 267 kts 50°
2026-04-24 02:48 8.45345 11.03581 18816 ft 267 kts 50°
2026-04-24 02:48 8.46511 11.05045 18820 ft 267 kts 50°
2026-04-24 02:48 8.47678 11.06511 18818 ft 267 kts 50°
2026-04-24 02:48 8.48843 11.07977 18819 ft 268 kts 50°
2026-04-24 02:49 8.50010 11.09444 18819 ft 268 kts 50°
2026-04-24 02:49 8.51177 11.10908 18821 ft 268 kts 50°
2026-04-24 02:49 8.52347 11.12379 18821 ft 268 kts 50°
2026-04-24 02:49 8.53499 11.13829 18820 ft 268 kts 50°
2026-04-24 02:50 8.54666 11.15296 18821 ft 268 kts 50°
2026-04-24 02:50 8.55837 11.16767 18822 ft 268 kts 50°
2026-04-24 02:50 8.57006 11.18238 18820 ft 268 kts 50°
2026-04-24 02:50 8.58176 11.19709 18823 ft 269 kts 50°
2026-04-24 02:51 8.59347 11.21182 18824 ft 269 kts 50°
2026-04-24 02:51 8.60519 11.22656 18822 ft 269 kts 50°
2026-04-24 02:51 8.61692 11.24132 18825 ft 269 kts 50°
2026-04-24 02:51 8.62863 11.25605 18824 ft 269 kts 50°
2026-04-24 02:52 8.64038 11.27083 18825 ft 269 kts 50°
2026-04-24 02:52 8.65208 11.28556 18823 ft 269 kts 50°
2026-04-24 02:52 8.66381 11.30033 18824 ft 269 kts 50°
2026-04-24 02:52 8.67540 11.31491 18822 ft 269 kts 50°
2026-04-24 02:53 8.68715 11.32972 18825 ft 269 kts 50°
2026-04-24 02:53 8.69878 11.34454 18825 ft 270 kts 51°
2026-04-24 02:53 8.70999 11.35980 18829 ft 270 kts 52°
2026-04-24 02:53 8.72108 11.37505 18828 ft 270 kts 52°
2026-04-24 02:54 8.74549 11.41297 18829 ft 271 kts 56°
2026-04-24 02:54 8.78710 11.47631 18831 ft 270 kts 54°
2026-04-24 02:54 8.81470 11.51849 18830 ft 270 kts 55°
2026-04-24 02:54 8.85615 11.58184 18827 ft 270 kts 55°
2026-04-24 02:55 8.89767 11.64535 18828 ft 270 kts 55°
2026-04-24 02:55 8.94050 11.71087 17740 ft 289 kts 54°
2026-04-24 02:55 8.96304 11.74540 16939 ft 286 kts 55°
2026-04-24 02:55 8.98490 11.77886 16181 ft 283 kts 55°
2026-04-24 02:56 9.00626 11.81156 15441 ft 280 kts 55°
2026-04-24 02:56 9.02762 11.84430 14718 ft 277 kts 55°
2026-04-24 02:56 9.04875 11.87666 14007 ft 275 kts 56°
2026-04-24 02:56 9.06984 11.90900 13242 ft 273 kts 56°
2026-04-24 02:57 9.09069 11.94097 12543 ft 271 kts 56°
2026-04-24 02:57 9.11141 11.97273 11835 ft 270 kts 56°
2026-04-24 02:57 9.13203 12.00437 11136 ft 267 kts 56°
2026-04-24 02:57 9.15254 12.03583 10428 ft 267 kts 56°
2026-04-24 02:58 9.17289 12.06704 9726 ft 266 kts 56°
2026-04-24 02:58 9.19314 12.09814 9014 ft 263 kts 57°
2026-04-24 02:58 9.21326 12.12903 8356 ft 263 kts 57°
2026-04-24 02:58 9.23340 12.15995 7676 ft 262 kts 57°
2026-04-24 02:59 9.25347 12.19079 6998 ft 263 kts 58°
2026-04-24 02:59 9.27374 12.22195 6301 ft 266 kts 58°
2026-04-24 02:59 9.28685 12.24208 5831 ft 267 kts 58°
2026-04-24 02:59 9.29706 12.25779 5476 ft 267 kts 58°
2026-04-24 03:00 9.30714 12.27330 5146 ft 253 kts 58°
2026-04-24 03:00 9.31601 12.28688 4928 ft 214 kts 57°
2026-04-24 03:00 9.32351 12.29839 4818 ft 179 kts 58°
2026-04-24 03:00 9.33035 12.30890 4694 ft 177 kts 58°
2026-04-24 03:01 9.33662 12.31856 4522 ft 153 kts 58°
2026-04-24 03:01 9.34213 12.32707 4386 ft 136 kts 58°
2026-04-24 03:01 9.34706 12.33466 4251 ft 125 kts 57°
2026-04-24 03:01 9.35200 12.34221 4108 ft 128 kts 58°
2026-04-24 03:02 9.35660 12.34936 3936 ft 118 kts 57°
2026-04-24 03:02 9.36126 12.35646 3807 ft 128 kts 56°
2026-04-24 03:02 9.36627 12.36416 3623 ft 131 kts 57°
2026-04-24 03:02 9.37128 12.37191 3430 ft 136 kts 54°
2026-04-24 03:03 9.37643 12.37982 3272 ft 130 kts 56°
2026-04-24 03:03 9.38125 12.38729 3052 ft 124 kts 56°
2026-04-24 03:03 9.38478 12.39501 2903 ft 118 kts 88°
2026-04-24 03:03 9.38342 12.40295 2767 ft 117 kts 119°
2026-04-24 03:04 9.37776 12.40937 2629 ft 131 kts 157°
2026-04-24 03:04 9.36930 12.41165 2440 ft 121 kts 179°
2026-04-24 03:04 9.36143 12.41293 2253 ft 107 kts 178°
2026-04-24 03:04 9.35384 12.41425 2089 ft 116 kts 176°
2026-04-24 03:05 9.34637 12.41546 1921 ft 99 kts 178°
2026-04-24 03:05 9.33950 12.41663 1812 ft 108 kts 174°
2026-04-24 03:05 9.33201 12.41794 1655 ft 106 kts 175°
2026-04-24 03:05 9.32493 12.41907 1518 ft 105 kts 173°
2026-04-24 03:06 9.31749 12.42032 1386 ft 112 kts 174°
2026-04-24 03:06 9.30951 12.42167 1322 ft 118 kts 173°
2026-04-24 03:06 9.30129 12.42291 1187 ft 121 kts 173°
2026-04-24 03:06 9.29295 12.42435 945 ft 121 kts 171°
2026-04-24 03:07 9.28491 12.42593 773 ft 114 kts 173°
2026-04-24 03:07 9.27721 12.42714 681 ft 111 kts 173°
2026-04-24 03:07 9.26976 12.42836 607 ft 109 kts 173°
2026-04-24 03:07 9.26258 12.42956 590 ft 88 kts 172°
2026-04-24 03:08 9.25989 12.42988 589 ft 20 kts 154°
2026-04-24 03:08 9.26260 12.42957 589 ft 34 kts 350°
2026-04-24 03:08 9.26498 12.42910 591 ft 31 kts 339°
2026-04-24 03:09 9.26533 12.42756 590 ft 26 kts 276°
2026-04-24 03:09 9.26718 12.42685 586 ft 30 kts 349°
2026-04-24 03:09 9.26782 12.42633 582 ft 11 kts 169°
2026-04-24 03:09 9.26766 12.42649 583 ft 0 kts 122°